This demonstration page uses our WeatherBlox Daily Observations layout. Learn more.

Left ArrowRight Arrow

41.55636, -103.73856

Hourly Observations for April 2, 2020

Temp ( °F °C ) Dew Point ( °F °C ) Humidity (%) Winds ( mph kmh ) Pressure ( in mb ) Visibility ( mi km ) Precip ( " mm )
6:58 pm 18:58 Mostly Cloudy 47 8.2 37 2.5 68 68 NE 21 33 29.71 1006 10 16 0.00 0.00
7:58 pm 19:58 Cloudy 39 3.9 34 1 82 82 NE 20 31 29.79 1009 10 16 0.00 0.00
8:58 pm 20:58 Cloudy 35 1.8 31 -0.7 84 84 NE 21 33 29.80 1009 10 16 0.00 0.00
9:58 pm 21:58 Cloudy 32 0.2 27 -2.7 81 81 NE 20 31 29.84 1010 10 16 0.00 0.00
10:58 pm 22:58 Cloudy 29 -1.9 24 -4.4 83 83 NNE 22 35 29.84 1010 10 16 0.00 0.00
11:58 pm 23:58 Windy with Snow Likely 24 -4.2 22 -5.6 90 90 NNE 21 33 29.86 1011 8 13 0.00 0.00
12:58 am 00:58 Cloudy with Light Snow Showers 23 -5.2 21 -5.9 95 95 NE 15 24 29.87 1012 4 6 0.00 0.00
1:58 am 01:58 Cloudy with Light Freezing Drizzle 22 -5.3 22 -5.8 96 96 N 12 19 29.90 1013 4 6 0.00 0.00
2:58 am 02:58 Cloudy with Light Freezing Drizzle 21 -5.9 20 -6.4 96 96 NE 12 19 29.89 1012 4 6 0.00 0.00
3:58 am 03:58 Cloudy with Light Freezing Drizzle 21 -6.1 20 -6.7 96 96 NNE 17 28 29.90 1013 3 5 0.00 0.00
4:58 am 04:58 Cloudy with Light Freezing Drizzle 20 -6.5 19 -7.1 96 96 NNE 15 24 29.93 1014 4 6 0.00 0.00
5:58 am 05:58 Cloudy with Light Freezing Drizzle 19 -7.4 17 -8.2 94 94 NNE 14 22 29.98 1015 9 14 0.00 0.00
6:58 am 06:58 Mostly Cloudy with Light Freezing Rain 18 -7.9 17 -8.5 96 96 NNE 13 20 30.04 1017 3 4 0.00 0.00
7:58 am 07:58 Cloudy with Light Snow 17 -8.6 15 -9.4 94 94 NNE 13 20 30.11 1020 1 2 0.00 0.00
8:58 am 08:58 Cloudy with Light Snow 17 -8.5 15 -9.2 95 95 N 12 19 30.11 1020 4 6 0.00 0.00
9:58 am 09:58 Cloudy 18 -8 16 -8.8 94 94 N 9 15 30.13 1020 10 16 0.00 0.00
10:58 am 10:58 Cloudy with Light Freezing Drizzle 18 -7.6 17 -8.5 93 93 NW 15 24 30.15 1021 10 16 0.00 0.00
11:58 am 11:58 Cloudy with Light Snow 18 -7.7 16 -9.1 90 90 NNW 14 22 30.19 1022 10 16 0.00 0.00
12:58 pm 12:58 Cloudy with Light Snow 19 -7.3 14 -9.8 83 83 N 16 26 30.18 1022 10 16 0.00 0.00
1:58 pm 13:58 Mostly Cloudy with Light Snow 19 -7 15 -9.4 83 83 N 17 28 30.18 1022 10 16 0.00 0.00
3:58 pm 15:58 Mostly Cloudy with Light Snow 17 -8.2 14 -10 87 87 NNW 16 26 30.22 1023 2 2 0.00 0.00

Powered by AerisWeather